Hebron, NE

4:33 AM CST on December 17, 2017 (GMT -0600)
Hebron Municipal

Weather History for KHJH - February, 2014

Change the Weather History Date:

Monday, February 17, 2014

  Actual Average Record
Temperature  
Mean Temperature 50 °F -  
Max Temperature 71 °F 39 °F 71 °F (2014)
Min Temperature 30 °F 17 °F -12 °F (1978)
Degree Days  
Heating Degree Days 14    
Moisture  
Dew Point 25 °F    
Average Humidity 55    
Maximum Humidity 94    
Minimum Humidity 18    
Precipitation  
Precipitation 0.00 in - - ()
Sea Level Pressure  
Sea Level Pressure 29.91 in    
Wind  
Wind Speed 8 mph (West)    
Max Wind Speed 21 mph    
Max Gust Speed 31 mph    
Visibility 10 miles    
Events      
Averages and records for this station are not official NWS values.
T = Trace of Precipitation, MM = Missing Value Source: NWS Daily Summary

Daily Weather History Graph

Daily Weather History Graph

Search for Another Location

Airport or City:

Trip Planner

Search our weather history database for the weather conditions in past years. The results will help you decide how hot, cold, wet, or windy it might be!

Date:

Astronomy

Feb. 17, 2014 Rise Set
Actual Time 7:20 AM CST 6:08 PM CST
Civil Twilight 6:53 AM CST 6:36 PM CST
Nautical Twilight 6:21 AM CST 7:07 PM CST
Astronomical Twilight 5:49 AM CST 7:39 PM CST
Moon 9:04 PM CST 8:21 AM CST
Length of Visible Light 11h 43m
Length of Day
10h 47m
Waning Gibbous, 93% of the Moon is Illuminated
Feb 17
Waning Gibbous
Feb 22
Last Quarter
Mar 1
New
Mar 8
First Quarter
Mar 16
Full

Hourly Weather History & Observations

Time (CST) Temp. Windchill Dew Point Humidity Pressure Visibility Wind Dir Wind Speed Gust Speed Precip Events Conditions
12:15 AM 34.0 °F 31.0 °F 30.2 °F 86% 29.78 in 10.0 mi ESE 3.5 mph - N/A   Clear
12:35 AM 33.8 °F - 30.4 °F 87% 29.78 in 10.0 mi Calm Calm - N/A   Mostly Cloudy
12:55 AM 32.5 °F 28.1 °F 29.8 °F 90% 29.77 in 10.0 mi ESE 4.6 mph - N/A   Scattered Clouds
1:15 AM 32.0 °F 27.5 °F 29.3 °F 90% 29.77 in 10.0 mi SE 4.6 mph - N/A   Clear
1:35 AM 31.3 °F - 28.9 °F 91% 29.77 in 7.0 mi Calm Calm - N/A   Clear
1:55 AM 30.7 °F - 28.8 °F 92% 29.77 in 7.0 mi Calm Calm - N/A   Clear
2:15 AM 31.5 °F 26.8 °F 29.3 °F 92% 29.78 in 7.0 mi WSW 4.6 mph - N/A   Clear
2:35 AM 31.6 °F 28.3 °F 29.3 °F 91% 29.79 in 7.0 mi West 3.5 mph - N/A   Clear
2:55 AM 30.6 °F 27.1 °F 28.4 °F 92% 29.78 in 7.0 mi West 3.5 mph - N/A   Scattered Clouds
3:15 AM 30.2 °F - 28.4 °F 93% 29.78 in 7.0 mi Calm Calm - N/A   Scattered Clouds
3:35 AM 30.7 °F 24.9 °F 29.1 °F 94% 29.75 in 7.0 mi North 5.8 mph - N/A   Mostly Cloudy
3:55 AM 31.1 °F 26.4 °F 29.5 °F 94% 29.78 in 7.0 mi NW 4.6 mph - N/A   Scattered Clouds
4:15 AM 31.5 °F 28.1 °F 29.3 °F 92% 29.78 in 7.0 mi NW 3.5 mph - N/A   Clear
4:35 AM 31.1 °F 26.4 °F 29.1 °F 92% 29.82 in 7.0 mi West 4.6 mph - N/A   Clear
4:55 AM 32.2 °F 23.8 °F 30.4 °F 93% 29.85 in 10.0 mi WNW 10.4 mph - N/A   Scattered Clouds
5:15 AM 36.5 °F 27.0 °F 32.0 °F 84% 29.87 in 10.0 mi NW 16.1 mph 23.0 mph N/A   Mostly Cloudy
5:35 AM 37.6 °F 29.1 °F 32.7 °F 83% 29.89 in 10.0 mi NNW 13.8 mph 24.2 mph N/A   Mostly Cloudy
5:55 AM 37.9 °F 30.5 °F 33.1 °F 83% 29.91 in 10.0 mi NW 11.5 mph 16.1 mph N/A   Mostly Cloudy
6:15 AM 37.4 °F 31.4 °F 32.9 °F 84% 29.91 in 10.0 mi NW 8.1 mph - N/A   Scattered Clouds
6:35 AM 37.0 °F 30.4 °F 32.5 °F 84% 29.92 in 10.0 mi NW 9.2 mph - N/A   Scattered Clouds
6:55 AM 37.4 °F 29.3 °F 32.2 °F 81% 29.94 in 10.0 mi NW 12.7 mph - N/A   Clear
7:15 AM 37.0 °F 29.8 °F 32.0 °F 82% 29.96 in 10.0 mi WNW 10.4 mph - N/A   Clear
7:35 AM 36.9 °F 30.7 °F 32.0 °F 83% 29.97 in 10.0 mi WNW 8.1 mph - N/A   Clear
7:55 AM 37.4 °F 30.3 °F 32.0 °F 81% 29.96 in 10.0 mi WNW 10.4 mph - N/A   Clear
8:15 AM 37.4 °F 32.8 °F 32.0 °F 81% 29.97 in 10.0 mi West 5.8 mph - N/A   Clear
8:35 AM 38.7 °F 31.8 °F 32.2 °F 78% 29.99 in 10.0 mi West 10.4 mph - N/A   Clear
8:55 AM 40.6 °F 33.4 °F 32.5 °F 73% 29.99 in 10.0 mi WNW 12.7 mph 21.9 mph N/A   Clear
9:15 AM 42.8 °F 35.4 °F 32.4 °F 67% 29.99 in 10.0 mi WNW 15.0 mph 24.2 mph N/A   Clear
9:35 AM 44.8 °F 36.9 °F 31.5 °F 60% 30.00 in 10.0 mi WNW 19.6 mph 26.5 mph N/A   Clear
9:55 AM 46.4 °F 39.2 °F 30.2 °F 53% 30.00 in 10.0 mi NW 18.4 mph 25.3 mph N/A   Clear
10:15 AM 47.1 °F - 30.2 °F 52% 30.01 in 10.0 mi NW 18.4 mph 25.3 mph N/A   Clear
10:35 AM 48.4 °F - 29.1 °F 47% 30.01 in 10.0 mi NW 17.3 mph 26.5 mph N/A   Clear
10:45 AM 71.6 °F - 68.0 °F 88% 29.91 in 15.0 mi South 11.5 mph - N/A   Scattered Clouds
10:55 AM 50.0 °F - 26.6 °F 40% 30.02 in 10.0 mi NW 18.4 mph 25.3 mph N/A   Clear
11:15 AM 50.7 °F - 23.7 °F 35% 30.01 in 10.0 mi NW 18.4 mph 27.6 mph N/A   Clear
11:35 AM 51.6 °F - 22.8 °F 32% 30.01 in 10.0 mi NW 16.1 mph 26.5 mph N/A   Clear
11:55 AM 52.7 °F - 22.3 °F 31% 30.00 in 10.0 mi NW 15.0 mph 25.3 mph N/A   Clear
12:15 PM 53.6 °F - 20.3 °F 27% 29.99 in 10.0 mi NW 16.1 mph 28.8 mph N/A   Clear
12:35 PM 54.7 °F - 19.2 °F 25% 29.96 in 10.0 mi NNW 18.4 mph 25.3 mph N/A   Clear
12:55 PM 54.9 °F - 17.6 °F 23% 29.96 in 10.0 mi NW 17.3 mph 27.6 mph N/A   Clear
1:15 PM 55.6 °F - 15.1 °F 20% 29.96 in 10.0 mi NW 17.3 mph 31.1 mph N/A   Clear
1:35 PM 55.8 °F - 16.3 °F 21% 29.96 in 10.0 mi WNW 16.1 mph 28.8 mph N/A   Clear
1:55 PM 56.5 °F - 14.0 °F 19% 29.96 in 10.0 mi WNW 20.7 mph 28.8 mph N/A   Clear
2:15 PM 57.4 °F - 14.5 °F 19% 29.96 in 10.0 mi WNW 13.8 mph 26.5 mph N/A   Clear
2:35 PM 57.0 °F - 14.4 °F 19% 29.96 in 10.0 mi WNW 13.8 mph 19.6 mph N/A   Clear
2:55 PM 57.6 °F - 16.5 °F 20% 29.96 in 10.0 mi West 12.7 mph 16.1 mph N/A   Clear
3:15 PM 57.7 °F - 15.8 °F 19% 29.96 in 10.0 mi WNW 11.5 mph - N/A   Clear
3:35 PM 58.3 °F - 15.3 °F 19% 29.96 in 10.0 mi NW 16.1 mph - N/A   Clear
3:55 PM 58.3 °F - 14.9 °F 18% 29.97 in 10.0 mi WNW 11.5 mph 23.0 mph N/A   Clear
4:15 PM 57.9 °F - 15.3 °F 19% 29.97 in 10.0 mi West 12.7 mph 19.6 mph N/A   Clear
4:35 PM 57.6 °F - 15.1 °F 19% 29.97 in 10.0 mi West 10.4 mph - N/A   Clear
4:55 PM 55.8 °F - 17.1 °F 22% 29.96 in 10.0 mi WSW 4.6 mph - N/A   Clear
5:15 PM 53.6 °F - 18.0 °F 25% 29.96 in 10.0 mi WSW 4.6 mph - N/A   Clear
5:35 PM 51.1 °F - 18.1 °F 27% 29.95 in 10.0 mi SW 4.6 mph - N/A   Clear
5:50 PM 47.5 °F - 18.9 °F 32% 29.95 in 10.0 mi SSW 8.1 mph - N/A   Clear
6:15 PM 47.7 °F - 18.7 °F 32% 29.95 in 10.0 mi SSW 6.9 mph - N/A   Clear
6:35 PM 44.8 °F 39.9 °F 19.9 °F 37% 29.95 in 10.0 mi SSW 9.2 mph - N/A   Clear
6:55 PM 43.9 °F 38.8 °F 21.2 °F 41% 29.94 in 10.0 mi SSW 9.2 mph - N/A   Clear
7:15 PM 43.2 °F 37.4 °F 22.1 °F 43% 29.94 in 10.0 mi SSW 10.4 mph - N/A   Clear
7:35 PM 44.8 °F 39.4 °F 21.6 °F 40% 29.93 in 10.0 mi SSW 10.4 mph - N/A   Clear
7:55 PM 40.5 °F 33.6 °F 22.5 °F 49% 29.92 in 10.0 mi SSW 11.5 mph - N/A   Clear
8:10 PM 44.4 °F 38.6 °F 21.2 °F 40% 29.91 in 10.0 mi SSW 11.5 mph - N/A   Clear
8:35 PM 43.5 °F 36.7 °F 21.4 °F 41% 29.91 in 10.0 mi SSW 13.8 mph - N/A   Clear
8:55 PM 44.4 °F 37.9 °F 20.5 °F 39% 29.90 in 10.0 mi SSW 13.8 mph - N/A   Clear
9:15 PM 42.6 °F 37.2 °F 21.0 °F 42% 29.90 in 10.0 mi SSW 9.2 mph - N/A   Clear
9:35 PM 42.8 °F 36.6 °F 20.8 °F 42% 29.89 in 10.0 mi South 11.5 mph - N/A   Clear
9:55 PM 42.1 °F 35.7 °F 20.5 °F 42% 29.89 in 10.0 mi SSW 11.5 mph - N/A   Clear
10:15 PM 42.8 °F 35.1 °F 20.3 °F 41% 29.89 in 10.0 mi SSW 16.1 mph - N/A   Clear
10:35 PM 42.8 °F 36.6 °F 20.8 °F 42% 29.88 in 10.0 mi SSW 11.5 mph - N/A   Clear
10:55 PM 43.7 °F 36.9 °F 21.0 °F 41% 29.86 in 10.0 mi SSW 13.8 mph 19.6 mph N/A   Clear
11:15 PM 43.5 °F 37.1 °F 21.7 °F 42% 29.85 in 10.0 mi SW 12.7 mph - N/A   Clear
11:35 PM 44.1 °F 37.7 °F 22.1 °F 42% 29.85 in 10.0 mi SW 12.7 mph 19.6 mph N/A   Clear
11:55 PM 43.5 °F 36.4 °F 22.8 °F 44% 29.84 in 10.0 mi SW 15.0 mph 21.9 mph N/A   Clear